[[{"header":{"parameterUnit":"m.s-1","parameterCategory":1,"la1":30.2992,"la2":30.254,"lo1":-89.0895,"lo2":-89.0443,"dy":0.0025,"dx":0.0025,"nx":19,"ny":19,"refTime":"2026-05-06T09:00:00:Z","depth":0,"parameterNumber":2,"parameterNumberName":"U-component_of_WINDS"},"data":[0,0,0,-0.9973,-0.9975,-1.0091,-1.0092,-1.0236,-1.0237,0,0,0,0,0,0,0,0,0,0,0,-0.9933,-0.9934,-0.9973,-0.9975,-1.0091,-1.0092,-1.0236,-1.0237,0,0,0,0,0,0,0,0,0,0,0,-0.9933,-0.9934,-0.9934,-0.9976,-1.0091,-1.0092,-1.0235,-1.015,0,0,0,0,0,0,0,0,0,0,-1.0038,-0.9996,-0.9933,-0.9935,-0.9976,-1.0091,-1.0092,-1.0146,-1.0155,-1.0181,0,-1.0199,0,-1.022,-1.0246,-1.0247,0,0,0,-0.998,-0.9988,-1.0024,-0.9935,-0.9977,-1.0091,-1.004,-1.0151,-1.0162,-1.0193,-1.0201,-1.0207,-1.0223,-1.0247,-1.0248,-1.0371,-1.0371,0,0,-0.9974,-0.9952,-1.0016,-1.003,-1.0009,-1.0037,-1.0044,-1.0158,-1.0167,-1.0202,-1.021,-1.0225,-1.0248,-1.0249,-1.0371,-1.0371,0,0,0,-0.9952,-0.9947,-0.998,-1.0024,-1.0045,-1.004,-1.0048,-1.0162,-1.0174,-1.0212,-1.0227,-1.0249,-1.0251,-1.037,-1.0371,-1.0365,0,0,0,-0.9949,-0.9934,-0.9977,-0.9965,-1.0043,-1.0104,-1.0049,-1.0166,-1.018,-1.0226,-1.0249,-1.0252,-1.037,-1.037,-1.0365,-1.0367,0,0,0,-0.9927,-0.9932,-0.9947,-0.9963,-1.0012,-1.0103,-1.0122,-1.017,-1.0188,-1.0247,-1.0252,-1.037,-1.037,-1.0364,-1.0366,-1.0393,0,0,0,-0.9899,-0.9941,-0.9946,-0.9999,-1.0011,-1.0098,-1.0122,-1.0188,-1.0237,-1.025,-1.037,-1.0371,-1.0364,-1.0366,-1.0392,-1.0412,-1.0418,0,0,-0.994,-0.9946,-0.9979,-0.9986,-1.0066,-1.0082,-1.0162,-1.023,-1.0257,-1.0332,-1.0335,-1.0365,-1.0366,-1.0393,-1.0457,-1.0461,0,0,0,-0.9984,-1.0008,-1.0034,-1.0078,-1.0129,-1.0174,-1.0231,-1.0257,-1.0321,-1.029,-1.0383,-1.0384,-1.0401,-1.0411,-1.0415,-1.0431,-1.0374,-1.0374,-1.0374,-1.0012,-1.0042,-1.0099,-1.0144,-1.0187,-1.0245,-1.0284,-1.0329,-1.0348,-1.037,-1.0392,-1.0427,-1.0438,-1.0441,-1.0458,-1.0405,-1.0405,-1.0405,-1.0405,-1.0075,-1.0114,-1.0137,-1.0201,-1.0234,-1.0289,-1.0348,-1.036,-1.0418,-1.0412,-1.0429,-1.0421,-1.0445,-1.0461,-1.0405,-1.0405,-1.0405,-1.0405,-1.0405,-1.0097,-1.0121,-1.0149,-1.0217,-1.0266,-1.0311,-1.0365,-1.0394,-1.0422,-1.0437,-1.0465,-1.0465,-1.047,-1.0448,-1.0449,-1.0449,-1.0449,-1.0449,-1.0449,-1.0109,-1.0141,-1.0181,-1.0238,-1.027,-1.0317,-1.0376,-1.0411,-1.0456,-1.0473,-1.0473,-1.0492,-1.0441,-1.0428,-1.0451,-1.0451,-1.045,-1.045,-1.045,-1.0163,-1.0155,-1.0217,-1.0249,-1.032,-1.0367,-1.0403,-1.0469,-1.0502,-1.0528,-1.0543,-1.05,-1.0509,-1.0506,-1.0495,-1.0535,-1.0535,-1.0535,-1.0535,-1.0182,-1.0188,-1.0258,-1.0308,-1.0361,-1.0399,-1.0471,-1.0518,-1.0566,-1.0588,-1.0587,-1.0575,-1.0571,-1.0582,-1.0578,-1.0568,-1.0626,-1.0626,-1.0626,-1.0218,-1.023,-1.0284,-1.0328,-1.0385,-1.0434,-1.0503,-1.0562,-1.0615,-1.063,-1.0607,-1.0603,-1.0585,-1.0577,-1.0592,-1.0584,-1.0568,0,0]},{"header":{"parameterUnit":"m.s-1","parameterCategory":1,"la1":30.2992,"la2":30.254,"lo1":-89.0895,"lo2":-89.0443,"dy":0.0025,"dx":0.0025,"nx":19,"ny":19,"refTime":"2026-05-06T09:00:00:Z","depth":0,"parameterNumber":3,"parameterNumberName":"V-component_of_WINDS"},"data":[0,0,0,5.6823,5.6824,5.6879,5.6879,5.6959,5.696,0,0,0,0,0,0,0,0,0,0,0,5.6814,5.6815,5.6823,5.6824,5.6879,5.6879,5.6959,5.696,0,0,0,0,0,0,0,0,0,0,0,5.6814,5.6815,5.6816,5.6824,5.6879,5.6879,5.6958,5.6913,0,0,0,0,0,0,0,0,0,0,5.6858,5.6858,5.6814,5.6816,5.6825,5.6879,5.6879,5.6911,5.6916,5.6938,0,5.6962,0,5.6962,5.6966,5.6966,0,0,0,5.6818,5.6854,5.6862,5.6816,5.6825,5.6879,5.6853,5.6914,5.6919,5.6945,5.6963,5.6966,5.6964,5.6966,5.6967,5.712,5.7121,0,0,5.6815,5.6828,5.6858,5.6866,5.686,5.6851,5.6854,5.6917,5.6937,5.6963,5.6967,5.6965,5.6967,5.6968,5.7119,5.712,0,0,0,5.681,5.6826,5.6832,5.6863,5.6872,5.6853,5.6857,5.6934,5.6935,5.6968,5.6966,5.6967,5.6969,5.7118,5.7119,5.7181,0,0,0,5.6808,5.6823,5.6831,5.6839,5.6872,5.6904,5.6872,5.693,5.6937,5.6966,5.6967,5.6969,5.7117,5.7118,5.7177,5.7208,0,0,0,5.6808,5.6823,5.6834,5.684,5.6864,5.6903,5.6907,5.6932,5.6936,5.6966,5.697,5.7116,5.7118,5.7173,5.7202,5.7251,0,0,0,5.681,5.6888,5.6835,5.692,5.6864,5.6941,5.6907,5.6964,5.6997,5.6968,5.7117,5.7119,5.7172,5.7198,5.7247,5.7294,5.7315,0,0,5.6915,5.6901,5.695,5.6904,5.6995,5.6932,5.703,5.7048,5.7039,5.7093,5.7096,5.7178,5.7201,5.725,5.743,5.7447,0,0,0,5.6987,5.7023,5.7044,5.7077,5.7093,5.7108,5.711,5.7116,5.7161,5.707,5.7209,5.7222,5.725,5.7272,5.7287,5.7309,5.713,5.713,5.7129,5.7154,5.7138,5.7217,5.7208,5.724,5.724,5.7264,5.7272,5.7247,5.728,5.7295,5.7407,5.7433,5.7443,5.7467,5.7319,5.732,5.732,5.732,5.7305,5.7352,5.7316,5.738,5.7362,5.7415,5.7417,5.7397,5.7443,5.7394,5.7418,5.7365,5.7463,5.7482,5.7325,5.7324,5.7323,5.7323,5.7322,5.7411,5.7431,5.7438,5.7482,5.7517,5.7504,5.755,5.7532,5.7515,5.7538,5.7552,5.7551,5.7547,5.7546,5.7547,5.7547,5.7548,5.7548,5.7548,5.7519,5.7524,5.7565,5.7588,5.7605,5.7626,5.7626,5.7642,5.7656,5.7639,5.7639,5.7609,5.7476,5.7442,5.7554,5.7553,5.7552,5.7552,5.7551,5.7677,5.7638,5.7701,5.7719,5.7743,5.7778,5.7754,5.7789,5.7799,5.7822,5.7787,5.7692,5.7675,5.7664,5.7636,5.7791,5.7791,5.7791,5.7791,5.7766,5.7756,5.7816,5.7845,5.7871,5.7856,5.7925,5.7925,5.7919,5.7924,5.7899,5.786,5.785,5.784,5.7824,5.7798,5.7991,5.7991,5.7991,5.7861,5.7853,5.7917,5.7911,5.7927,5.7942,5.8006,5.8039,5.8024,5.7999,5.7927,5.7919,5.7856,5.7837,5.781,5.7787,5.7738,0,0]}]]